Danville, VA

6:59 PM EDT on May 23, 2018 (GMT -0400)
Danville Regional

Weather History for KDAN - April, 2013

Change the Weather History Date:

Thursday, April 18, 2013

  Actual Average Record
Temperature  
Mean Temperature 73 °F 59 °F  
Max Temperature 80 °F 71 °F 91 °F (1976)
Min Temperature 65 °F 48 °F 30 °F (1951)
Degree Days  
Heating Degree Days 0 7  
Month to date heating degree days 118 166  
Since 1 July heating degree days 3573 3677  
Cooling Degree Days 8 1  
Month to date cooling degree days 43 17  
Year to date cooling degree days 45 20  
Growing Degree Days 22 (Base 50)    
Moisture  
Dew Point 58 °F    
Average Humidity 60    
Maximum Humidity 81    
Minimum Humidity 39    
Precipitation  
Precipitation 0.00 in 0.11 in 0.54 in (1998)
Month to date precipitation 1.96 2.13  
Year to date precipitation 14.32 12.67  
Snow  
Snow 0.00 in - - ()
Month to date snowfall 0.0  
Since 1 July snowfall 1.7  
Snow Depth 0.00 in    
Sea Level Pressure  
Sea Level Pressure 30.09 in    
Wind  
Wind Speed 6 mph (South)    
Max Wind Speed 14 mph    
Max Gust Speed 21 mph    
Visibility 10 miles    
Events      
T = Trace of Precipitation, MM = Missing Value Source: NWS Daily Summary

Daily Weather History Graph

Daily Weather History Graph

Search for Another Location

Airport or City:

Astronomy

Apr. 18, 2013 Rise Set
Actual Time 6:39 AM EDT 7:54 PM EDT
Civil Twilight 6:12 AM EDT 8:21 PM EDT
Nautical Twilight 5:40 AM EDT 8:53 PM EDT
Astronomical Twilight 5:07 AM EDT 9:26 PM EDT
Moon 12:51 PM EDT (4/18) 2:05 AM EDT (4/18)
Length of Visible Light 14h 08m
Length of Day
13h 15m
First Quarter, 51% of the Moon is Illuminated
Apr 18
First Quarter
Apr 25
Full
May 2
Last Quarter
May 9
New
May 18
First Quarter

Hourly Weather History & Observations

Time (EDT) Temp. Heat Index Dew Point Humidity Pressure Visibility Wind Dir Wind Speed Gust Speed Precip Events Conditions
12:53 AM 66.0 °F - 60.1 °F 81% 30.11 in 10.0 mi East 3.5 mph - N/A   Mostly Cloudy
1:53 AM 68.0 °F - 60.1 °F 76% 30.09 in 10.0 mi South 5.8 mph - N/A   Clear
2:53 AM 68.0 °F - 60.1 °F 76% 30.10 in 10.0 mi South 5.8 mph - N/A   Partly Cloudy
3:53 AM 66.9 °F - 57.9 °F 73% 30.10 in 10.0 mi SSE 4.6 mph - N/A   Mostly Cloudy
4:53 AM 66.9 °F - 57.0 °F 70% 30.10 in 10.0 mi SSW 4.6 mph - N/A   Mostly Cloudy
5:53 AM 66.0 °F - 57.0 °F 73% 30.11 in 10.0 mi South 3.5 mph - N/A   Mostly Cloudy
6:53 AM 64.9 °F - 57.0 °F 75% 30.14 in 10.0 mi Variable 3.5 mph - N/A   Mostly Cloudy
7:53 AM 64.9 °F - 55.9 °F 73% 30.15 in 10.0 mi South 4.6 mph - N/A   Scattered Clouds
8:53 AM 66.0 °F - 59.0 °F 78% 30.16 in 10.0 mi South 4.6 mph - N/A   Partly Cloudy
9:53 AM 70.0 °F - 60.1 °F 71% 30.16 in 8.0 mi South 6.9 mph - N/A   Partly Cloudy
10:53 AM 73.0 °F - 57.0 °F 57% 30.15 in 7.0 mi SSW 8.1 mph - N/A   Mostly Cloudy
11:41 AM 73.4 °F - 59.0 °F 61% 30.18 in 10.0 mi Variable 4.6 mph - N/A   Mostly Cloudy
11:53 AM 73.9 °F - 59.0 °F 59% 30.15 in 9.0 mi South 8.1 mph - N/A   Overcast
12:01 PM 75.2 °F - 59.0 °F 57% 30.17 in 9.0 mi South 9.2 mph - N/A   Overcast
12:53 PM 75.0 °F - 57.0 °F 53% 30.13 in 8.0 mi South 9.2 mph 18.4 mph N/A   Mostly Cloudy
1:53 PM 78.1 °F - 57.9 °F 50% 30.11 in 10.0 mi Variable 4.6 mph 16.1 mph N/A   Mostly Cloudy
2:53 PM 79.0 °F - 55.9 °F 45% 30.08 in 10.0 mi SE 8.1 mph - N/A   Scattered Clouds
3:53 PM 79.0 °F - 54.0 °F 42% 30.06 in 10.0 mi Variable 3.5 mph 18.4 mph N/A   Mostly Cloudy
4:53 PM 80.1 °F 80.0 °F 54.0 °F 40% 30.04 in 10.0 mi South 8.1 mph - N/A   Mostly Cloudy
5:53 PM 78.1 °F - 55.0 °F 45% 30.03 in 10.0 mi Variable 6.9 mph - N/A   Overcast
6:53 PM 75.9 °F - 57.0 °F 52% 30.01 in 10.0 mi Calm Calm - N/A   Mostly Cloudy
7:53 PM 73.9 °F - 57.0 °F 55% 30.00 in 10.0 mi Variable 4.6 mph - N/A   Scattered Clouds
8:53 PM 72.0 °F - 57.0 °F 59% 30.01 in 10.0 mi Variable 3.5 mph - N/A   Clear
9:53 PM 70.0 °F - 57.0 °F 63% 30.00 in 10.0 mi Variable 4.6 mph - N/A   Clear
10:53 PM 69.1 °F - 57.9 °F 68% 30.00 in 10.0 mi Variable 5.8 mph - N/A   Clear
11:53 PM 68.0 °F - 59.0 °F 73% 30.00 in 10.0 mi South 8.1 mph - N/A   Clear